When you browse on this site, cookies collect data to enhance your experience and personalize the content and advertising you see.
Visit our Privacy Policy to learn more. By continuing to use the site, you agree to this use of cookies and data.
  • In Hungary
  • List of Countries
  • For 7 days
  • Water Temperature
  • Satellite Maps
  • Weather Map
  • News
  • Weather Widgets
  • user-avatar
    Login

    Hourly Weather Hotinovo

    Today, 26 May, Sunday

    Time Temperature Precipitation Wind Pressure Humidity
    00:00 +13°C° 0 mm 2 mps 737 mmHg 96%
    01:00 +12°C° 0 mm 2 mps 737 mmHg 97%
    02:00 +10°C° 0 mm 2 mps 737 mmHg 97%
    03:00 +12°C° 0 mm 2 mps 737 mmHg 96%
    04:00 +12°C° 0 mm 2 mps 737 mmHg 95%
    05:00 +12°C° 0 mm 2 mps 738 mmHg 94%
    06:00 +13°C° 0 mm 2 mps 738 mmHg 86%
    07:00 +14°C° 0 mm 2 mps 738 mmHg 78%
    08:00 +16°C° 0 mm 2 mps 738 mmHg 70%
    09:00 +17°C° 0 mm 3 mps 738 mmHg 63%
    10:00 +18°C° 0 mm 3 mps 738 mmHg 57%
    11:00 +19°C° 0 mm 3 mps 738 mmHg 50%
    12:00 +19°C° 0 mm 3 mps 738 mmHg 49%
    13:00 +20°C° 0 mm 3 mps 738 mmHg 48%
    14:00 +20°C° 0 mm 3 mps 738 mmHg 46%
    15:00 +20°C° 0 mm 3 mps 737 mmHg 48%
    16:00 +20°C° 0 mm 3 mps 737 mmHg 50%
    17:00 +19°C° 0 mm 2 mps 737 mmHg 52%
    18:00 +18°C° 0 mm 2 mps 737 mmHg 60%
    19:00 +16°C° 0 mm 2 mps 737 mmHg 68%
    20:00 +14°C° 0 mm 2 mps 737 mmHg 75%
    21:00 +13°C° 0 mm 2 mps 737 mmHg 78%
    22:00 +12°C° 0 mm 2 mps 737 mmHg 82%
    23:00 +10°C° 0 mm 3 mps 737 mmHg 85%

    Tomorrow, 27 May, Monday

    Time Temperature Precipitation Wind Pressure Humidity
    00:00 +10°C° 0 mm 3 mps 737 mmHg 85%
    01:00 +10°C° 0 mm 3 mps 737 mmHg 85%
    02:00 +10°C° 0 mm 3 mps 737 mmHg 85%
    03:00 +10°C° 0 mm 3 mps 738 mmHg 84%
    04:00 +10°C° 0 mm 4 mps 738 mmHg 82%
    05:00 +10°C° 0 mm 4 mps 738 mmHg 81%
    06:00 +11°C° 0 mm 4 mps 738 mmHg 77%
    07:00 +12°C° 0 mm 4 mps 739 mmHg 73%
    08:00 +13°C° 0 mm 5 mps 739 mmHg 69%
    09:00 +13°C° 0 mm 5 mps 739 mmHg 69%
    10:00 +13°C° 0 mm 5 mps 739 mmHg 70%
    11:00 +13°C° 0 mm 5 mps 740 mmHg 71%
    12:00 +14°C° 0 mm 5 mps 740 mmHg 69%
    13:00 +15°C° 0 mm 5 mps 740 mmHg 68%
    14:00 +16°C° 0 mm 5 mps 740 mmHg 66%
    15:00 +17°C° 0 mm 4 mps 740 mmHg 70%
    16:00 +16°C° 0 mm 3 mps 740 mmHg 75%
    17:00 +16°C° 0 mm 3 mps 740 mmHg 80%
    18:00 +16°C° 0.1 mm 3 mps 740 mmHg 81%
    19:00 +15°C° 0.1 mm 4 mps 740 mmHg 82%
    20:00 +15°C° 0.1 mm 4 mps 740 mmHg 83%
    21:00 +15°C° 0.1 mm 4 mps 740 mmHg 86%
    22:00 +15°C° 0.1 mm 4 mps 740 mmHg 88%
    23:00 +15°C° 0.1 mm 4 mps 740 mmHg 90%

    Day after tomorrow, 28 May, Tuesday

    Time Temperature Precipitation Wind Pressure Humidity
    00:00 +14°C° 0 mm 4 mps 741 mmHg 91%
    01:00 +14°C° 0 mm 3 mps 741 mmHg 93%
    02:00 +13°C° 0 mm 3 mps 741 mmHg 94%
    03:00 +13°C° 0 mm 3 mps 741 mmHg 94%
    04:00 +14°C° 0 mm 3 mps 742 mmHg 94%
    05:00 +14°C° 0 mm 3 mps 742 mmHg 93%
    06:00 +16°C° 0 mm 3 mps 742 mmHg 87%
    07:00 +18°C° 0 mm 3 mps 743 mmHg 81%
    08:00 +20°C° 0 mm 3 mps 743 mmHg 75%
    09:00 +21°C° 0.1 mm 3 mps 743 mmHg 69%
    10:00 +22°C° 0.1 mm 4 mps 743 mmHg 63%
    11:00 +25°C° 0.1 mm 4 mps 743 mmHg 58%
    12:00 +25°C° 0.1 mm 4 mps 743 mmHg 57%
    13:00 +26°C° 0.1 mm 4 mps 743 mmHg 57%
    14:00 +26°C° 0.1 mm 4 mps 743 mmHg 56%
    15:00 +25°C° 0.4 mm 3 mps 743 mmHg 63%
    16:00 +25°C° 0.4 mm 3 mps 743 mmHg 70%
    17:00 +24°C° 0.4 mm 2 mps 743 mmHg 77%
    18:00 +22°C° 0.6 mm 3 mps 743 mmHg 82%
    19:00 +20°C° 0.6 mm 3 mps 743 mmHg 87%
    20:00 +19°C° 0.6 mm 3 mps 743 mmHg 92%
    21:00 +19°C° 0.2 mm 3 mps 743 mmHg 93%
    22:00 +18°C° 0.2 mm 3 mps 743 mmHg 93%
    23:00 +18°C° 0.2 mm 4 mps 743 mmHg 93%

    29 May, Wednesday

    Time Temperature Precipitation Wind Pressure Humidity
    00:00 +18°C° 0 mm 4 mps 743 mmHg 93%
    01:00 +17°C° 0 mm 3 mps 743 mmHg 93%
    02:00 +17°C° 0 mm 3 mps 743 mmHg 93%
    03:00 +17°C° 0 mm 3 mps 743 mmHg 93%
    04:00 +17°C° 0 mm 3 mps 744 mmHg 92%
    05:00 +18°C° 0 mm 3 mps 744 mmHg 92%
    06:00 +19°C° 0 mm 4 mps 744 mmHg 85%
    07:00 +21°C° 0 mm 4 mps 744 mmHg 79%
    08:00 +23°C° 0 mm 5 mps 744 mmHg 73%
    09:00 +25°C° 0 mm 5 mps 744 mmHg 66%
    10:00 +26°C° 0 mm 6 mps 744 mmHg 59%
    11:00 +28°C° 0 mm 6 mps 744 mmHg 52%
    12:00 +28°C° 0 mm 6 mps 744 mmHg 49%
    13:00 +28°C° 0 mm 6 mps 744 mmHg 47%
    14:00 +28°C° 0 mm 6 mps 744 mmHg 44%
    15:00 +28°C° 0 mm 6 mps 744 mmHg 47%
    16:00 +28°C° 0 mm 5 mps 744 mmHg 50%
    17:00 +27°C° 0 mm 4 mps 744 mmHg 52%
    18:00 +25°C° 0 mm 4 mps 744 mmHg 59%
    19:00 +22°C° 0 mm 3 mps 744 mmHg 66%
    20:00 +20°C° 0 mm 3 mps 744 mmHg 73%
    21:00 +20°C° 0 mm 3 mps 744 mmHg 76%
    22:00 +19°C° 0 mm 2 mps 745 mmHg 80%
    23:00 +18°C° 0 mm 2 mps 745 mmHg 84%

    30 May, Thursday

    Time Temperature Precipitation Wind Pressure Humidity
    00:00 +18°C° 0 mm 3 mps 745 mmHg 85%
    01:00 +18°C° 0 mm 3 mps 745 mmHg 87%
    02:00 +18°C° 0 mm 3 mps 745 mmHg 89%
    03:00 +18°C° 0 mm 3 mps 745 mmHg 88%
    04:00 +19°C° 0 mm 3 mps 745 mmHg 88%
    05:00 +19°C° 0 mm 3 mps 745 mmHg 87%
    06:00 +20°C° 0 mm 4 mps 745 mmHg 83%
    07:00 +21°C° 0 mm 4 mps 745 mmHg 79%
    08:00 +22°C° 0 mm 4 mps 745 mmHg 75%
    09:00 +25°C° 0 mm 4 mps 745 mmHg 69%
    10:00 +26°C° 0 mm 5 mps 745 mmHg 62%
    11:00 +28°C° 0 mm 5 mps 745 mmHg 55%
    12:00 +28°C° 0.1 mm 5 mps 745 mmHg 54%
    13:00 +28°C° 0.1 mm 5 mps 745 mmHg 53%
    14:00 +29°C° 0.1 mm 5 mps 744 mmHg 52%
    15:00 +28°C° 0 mm 4 mps 744 mmHg 57%
    16:00 +27°C° 0 mm 4 mps 744 mmHg 62%
    17:00 +26°C° 0 mm 3 mps 743 mmHg 66%
    18:00 +25°C° 0.3 mm 3 mps 743 mmHg 71%
    19:00 +22°C° 0.3 mm 3 mps 744 mmHg 75%
    20:00 +21°C° 0.3 mm 4 mps 744 mmHg 80%
    21:00 +20°C° 0.7 mm 3 mps 744 mmHg 85%
    22:00 +19°C° 0.7 mm 3 mps 744 mmHg 89%
    23:00 +18°C° 0.7 mm 2 mps 744 mmHg 94%

    31 May, Friday

    Time Temperature Precipitation Wind Pressure Humidity
    00:00 +18°C° 0 mm 2 mps 744 mmHg 95%
    01:00 +18°C° 0 mm 2 mps 744 mmHg 95%
    02:00 +18°C° 0 mm 3 mps 744 mmHg 96%
    03:00 +18°C° 0.7 mm 2 mps 744 mmHg 96%
    04:00 +18°C° 0.7 mm 2 mps 744 mmHg 96%
    05:00 +18°C° 0.7 mm 2 mps 744 mmHg 96%
    06:00 +18°C° 0.2 mm 2 mps 745 mmHg 96%
    07:00 +17°C° 0.2 mm 2 mps 745 mmHg 95%
    08:00 +17°C° 0.2 mm 3 mps 745 mmHg 95%
    09:00 +16°C° 0 mm 3 mps 745 mmHg 92%
    10:00 +14°C° 0 mm 3 mps 746 mmHg 89%
    11:00 +14°C° 0 mm 4 mps 746 mmHg 86%
    12:00 +13°C° 0.5 mm 4 mps 746 mmHg 88%
    13:00 +12°C° 0.5 mm 4 mps 747 mmHg 89%
    14:00 +11°C° 0.5 mm 4 mps 747 mmHg 91%
    15:00 +12°C° 0.2 mm 4 mps 748 mmHg 89%
    16:00 +12°C° 0.2 mm 3 mps 748 mmHg 87%
    17:00 +13°C° 0.2 mm 3 mps 748 mmHg 85%
    18:00 +13°C° 0 mm 2 mps 749 mmHg 86%
    19:00 +13°C° 0 mm 2 mps 749 mmHg 88%
    20:00 +12°C° 0 mm 1 mps 749 mmHg 89%
    21:00 +12°C° 0 mm 1 mps 750 mmHg 88%
    22:00 +11°C° 0 mm 1 mps 750 mmHg 87%
    23:00 +9°C° 0 mm 2 mps 751 mmHg 86%
    Show more